THOR ABLESTAR DEB, 649

Orbit data source: Space-Track

THOR ABLESTAR DEB, 649 is space debris in LEO originally from a launch on Thu, 29 Jun 1961 UTC launched from the Air Force Eastern Test Range (AFETR). Debris objects in space refer to the collection of defunct objects orbiting the Earth. Examples of debris include non-operational satellites, rocket bodies, and fragments generated from explosions, collisions, or faulty payload assembly.

Loading next visibility...
Identifier
649, 1961-015HA
Orbit
LEO
Country
Flag of USUS
Related business
Manufacturer
Unknown
Mission
Spacecraft
Bus & Motor
Unknown
Mass
Unknown
Launch date (UTC)
1961-06-29 (64 years ago)
Launch vehicle
Unknown
Launch site
Air Force Eastern Test Range (AFETR)
Object type
Payload
Rocket body
Debris
Shape & HBR
Unknown shape, 0.1 m
Radar Cross Section
Small (<0.1 m²)

Expand to show TLE details & history
Last TLE update: 8 hours ago

TLE from 8 hours ago
0 THOR ABLESTAR DEB
1 00649U 61015HA  25346.96720751  .00000171  00000-0  66775-3 0  9992
2 00649  66.2642 185.5199 0555939 133.0625  13.5275 12.65273591969076
Epoch: 2025-12-12T23:12Z
TLE epoch observation values (Epoch: 2025-12-12T23:12:46.728Z)
Latitude
28.91567°
Longitude
-78.558°
Altitude
984.77 km
Speed
7.558 km/s
True Right ascension
23h 26m 09s
True Declination
28° 46' 29"
Sunlit
Object was in daylight at epoch
Visualization orbit readout
Latitude
Unknown
Longitude
Unknown
Altitude
Unknown
Speed
Unknown
Apparent Right ascension
Unknown
Apparent Declination
Unknown
Sunlit
N/A
Visualization observer readout
Local Sidereal Time
05:23:56
Azimuth
Unknown
Elevation
Unknown
Doppler factor
Unknown
Orbital elements
Apogee altitude
1,832.202 km
Perigee altitude
967.391 km
Semi-major axis
7,777.933 km
Eccentricity
0.05559
Inclination
66.2642°
RAAN
185.5199°
Arg. of periapsis
133.0625°
True anomaly
15.12508°
Mean anomaly
13.5275°
Eccentric anomaly
14.31508°
Mean motion
3.16408 °/min
Orbital period
113.78 mins
BSTAR
0.00066775
Loading maneuver chart data...
Computing Atmospheric mass density...
Loading historical data...
Loading historical data...
Loading historical data...
Loading historical data...
Loading historical data...
Loading historical data...
Loading historical data...

Documentation

Showing up to 5 results
|